星链-4037 (STARLINK-4037 )

导读

STARLINK-4037是由美国在2022年5月18日发射的星链系列卫星,属于SpaceX打造的低轨卫星互联网星座组成部分。星链星座旨在为全球提供高速低延迟宽带网络服务,覆盖偏远地区与网络基础设施薄弱区域,该卫星入轨后逐步展开在轨测试与运营,助力星座组网进程推进。

基本信息
目录编号:
52663
目录名称:
STARLINK-4037
国际标识:
2022-053H
轨道中心:
EARTH
卫星名称:
星链-4037
卫星全名:
星链-4037 (STARLINK-4037 )
卫星状态:
在轨 (已飞行1571 天)
发射日期:
2022-05-18 UTC
国别 :
美国 (US)
星等 :
--
轨道信息
数据来源 国际轨道数据
星历时间: 2026-09-05T16:00:02+0800
8小时前
查看轨道信息
半长轴: 6870.792km
偏心率: 0.0001145
轨道倾角: 53.161°
近地点辐角 67.418°
升交点赤经 66.458°
平近点角 359.571°
近地点: 491.868km
远地点: 493.442km
周期: 94.465分钟
每日圈数: 15.243778
详细信息
固有亮度:
5
最大亮度:
2.5
卫星平台:
Starlink v1.5
覆盖范围:
全球
运营商:
太空探索技术公司
运营商所在国:
美国
制造商(研发单位):
太空探索技术公司
制造商所在国:
美国
使用方式:
暂无
卫星简介
星链(Starlink)计划是由太空探索技术公司(SpaceX)提出的一个巨型低轨卫星互联网星座项目,计划在2019年至2024年间在太空搭建由约1.2万颗卫星组成的“星链”网络,其中1584颗将部署在地球上空550千米处的近地轨道,并从2020年开始工作。该卫星仍在工作。
2D轨道图
3D轨道图
轨道高度分析图
轨道倾角分析图
轨道综合分析图
查看轨道综合分析图
交会数据列表
事件ID 空间交会对象 最接近时刻(TCA) 交会距离 交会风险概率(CRP) 交会风险指数(CRI) 操作
CDM_260904-005905-266305-751921
HJ-2F (57519)
2026-09-04T
00:59:25+0000
2.111 km
极远距离
2.494076E-6 低风险 0.43